User: anonymous   Login
Location: Unspecified
(0.0000°N, 0.0000°E)
Time: 16:32:14
(UTC+00:00)
Language:

MetOp-B - Orbit

View from above orbital plane
View from above orbital plane
View from above satellite
View from above satellite

Ground track
Ground track

The orbit data is extracted from the following two-line orbital elements,

1 38771U 12049A   17204.94509639 +.00000006 +00000-0 +22573-4 0  9990
2 38771 098.6761 264.4985 0002114 110.5179 013.7802 14.21504753251501
Epoch (UTC): 23 July 2017 22:40:56
Eccentricity: 0.0002114
inclination: 98.6761°
perigee height: 819 km
apogee height: 822 km
right ascension of ascending node: 264.4985°
argument of perigee: 110.5179°
revolutions per day: 14.21504753
mean anomaly at epoch: 13.7802°
orbit number at epoch: 25150

The dashed part of the orbit path shows where the satellite is in the earth's shadow,  

DLR